Fort Eustis, VA

1:39 PM EST on November 23, 2017 (GMT -0500)
Felker Army Air Field

Weather History for KFAF - March, 2013

Change the Weather History Date:

Wednesday, March 6, 2013

  Actual Average Record
Temperature  
Mean Temperature 42 °F -  
Max Temperature 48 °F 52 °F 69 °F (2009)
Min Temperature 36 °F 36 °F 19 °F (2015)
Degree Days  
Heating Degree Days 23    
Moisture  
Dew Point 39 °F    
Average Humidity 89    
Maximum Humidity 100    
Minimum Humidity 74    
Precipitation  
Precipitation 0.85 in - - ()
Sea Level Pressure  
Sea Level Pressure 29.50 in    
Wind  
Wind Speed 12 mph (NE)    
Max Wind Speed 24 mph    
Max Gust Speed 40 mph    
Visibility 8 miles    
Events Rain , Snow    
Averages and records for this station are not official NWS values.
T = Trace of Precipitation, MM = Missing Value Source: NWS Daily Summary

Daily Weather History Graph

Daily Weather History Graph

Search for Another Location

Airport or City:

Trip Planner

Search our weather history database for the weather conditions in past years. The results will help you decide how hot, cold, wet, or windy it might be!

Date:

Astronomy

Mar. 06, 2013 Rise Set
Actual Time 6:30 AM EST 6:05 PM EST
Civil Twilight 6:04 AM EST 6:31 PM EST
Nautical Twilight 5:34 AM EST 7:01 PM EST
Astronomical Twilight 5:03 AM EST 7:31 PM EST
Moon 2:31 AM EST (3/6) 12:50 PM EST (3/6)
Length of Visible Light 12h 27m
Length of Day
11h 35m
Waning Crescent, 30% of the Moon is Illuminated
Mar 6
Waning Crescent
Mar 11
New
Mar 19
First Quarter
Mar 27
Full
Apr 3
Last Quarter

Hourly Weather History & Observations

Time (EST) Temp. Windchill Dew Point Humidity Pressure Visibility Wind Dir Wind Speed Gust Speed Precip Events Conditions
12:35 AM 41.0 °F 34.3 °F 37.4 °F 87% 29.68 in 4.0 mi East 11.5 mph 20.7 mph N/A   Overcast
12:55 AM 40.6 °F 32.7 °F 38.8 °F 93% 29.65 in 3.0 mi East 15.0 mph 18.4 mph 0.23 in   Overcast
1:55 AM 41.7 °F 34.4 °F 39.9 °F 93% 29.62 in 7.0 mi East 13.8 mph 21.9 mph 0.11 in   Light Drizzle
2:10 AM 42.8 °F 35.1 °F 41.0 °F 93% 29.62 in 10.0 mi East 16.1 mph 24.2 mph N/A Rain Light Rain
2:55 AM 43.5 °F 37.1 °F 41.5 °F 93% 29.56 in 10.0 mi East 12.7 mph 24.2 mph 0.05 in Rain Light Rain
3:02 AM 44.6 °F 38.4 °F 42.8 °F 93% 29.55 in 10.0 mi East 12.7 mph 19.6 mph N/A   Overcast
3:09 AM 44.6 °F 39.2 °F 42.8 °F 93% 29.53 in 10.0 mi East 10.4 mph - N/A   Overcast
3:46 AM 44.6 °F 38.1 °F 42.8 °F 93% 29.49 in 10.0 mi East 13.8 mph 24.2 mph N/A   Overcast
3:55 AM 45.0 °F 38.5 °F 43.2 °F 93% 29.48 in 10.0 mi East 13.8 mph 21.9 mph 0.00 in   Overcast
4:04 AM 44.6 °F 38.1 °F 42.8 °F 93% 29.47 in 10.0 mi ESE 13.8 mph 21.9 mph N/A   Overcast
4:55 AM 46.0 °F 40.6 °F 44.2 °F 93% 29.44 in 10.0 mi East 11.5 mph 20.7 mph N/A   Overcast
5:05 AM 46.4 °F 39.8 °F 44.6 °F 93% 29.44 in 10.0 mi East 16.1 mph 23.0 mph N/A   Overcast
5:13 AM 46.4 °F 41.1 °F 44.6 °F 93% 29.44 in 8.0 mi ESE 11.5 mph 23.0 mph N/A Rain Light Rain
5:23 AM 46.4 °F 40.7 °F 44.6 °F 93% 29.43 in 10.0 mi East 12.7 mph 19.6 mph N/A   Overcast
5:34 AM 46.4 °F 42.4 °F 44.6 °F 93% 29.43 in 10.0 mi East 8.1 mph - N/A Rain Light Rain
5:53 AM 46.4 °F 40.7 °F 44.6 °F 93% 29.41 in 10.0 mi East 12.7 mph 18.4 mph N/A   Overcast
5:55 AM 46.9 °F - 44.6 °F 92% 29.41 in 10.0 mi ESE 9.2 mph 18.4 mph 0.04 in   Overcast
6:19 AM 48.2 °F - 44.6 °F 87% 29.39 in 10.0 mi East 9.2 mph - N/A   Overcast
6:55 AM 47.7 °F - 45.0 °F 90% 29.37 in 10.0 mi East 9.2 mph - N/A   Overcast
7:05 AM 48.2 °F - 44.6 °F 87% 29.37 in 10.0 mi SE 8.1 mph - N/A   Overcast
7:16 AM 48.2 °F - 44.6 °F 87% 29.36 in 6.0 mi South 4.6 mph - N/A   Overcast
7:17 AM 48.2 °F - 44.6 °F 87% 29.36 in 6.0 mi SSW 4.6 mph - N/A Rain Light Rain
7:27 AM 48.2 °F - 44.6 °F 87% 29.35 in 10.0 mi SE 6.9 mph - N/A   Overcast
7:28 AM 48.2 °F - 44.6 °F 87% 29.35 in 10.0 mi SE 6.9 mph - N/A Rain Light Rain
7:55 AM 45.9 °F 40.8 °F 43.5 °F 92% 29.36 in 8.0 mi WSW 10.4 mph 17.3 mph 0.09 in Rain Light Rain
8:14 AM 42.8 °F 37.0 °F 39.2 °F 87% 29.37 in 10.0 mi SW 10.4 mph 18.4 mph N/A   Overcast
8:55 AM 38.3 °F 29.7 °F 36.1 °F 92% 29.37 in 10.0 mi SW 15.0 mph 20.7 mph 0.01 in   Overcast
9:55 AM 36.7 °F 29.9 °F 34.0 °F 90% 29.37 in 10.0 mi SW 9.2 mph - N/A   Overcast
10:55 AM 36.9 °F 29.6 °F 34.2 °F 90% 29.34 in 10.0 mi WSW 10.4 mph - N/A   Overcast
11:36 AM 37.4 °F 32.1 °F 33.8 °F 87% 29.33 in 10.0 mi WSW 6.9 mph - N/A   Overcast
11:54 AM 37.4 °F 31.4 °F 33.8 °F 87% 29.31 in 2.0 mi WSW 8.1 mph - N/A   Light Drizzle
11:55 AM 37.2 °F 31.2 °F 34.3 °F 89% 29.32 in 2.0 mi WSW 8.1 mph - 0.00 in   Light Drizzle
12:11 PM 37.4 °F 33.8 °F 35.6 °F 93% 29.32 in 2.0 mi Variable 4.6 mph - N/A   Drizzle
12:33 PM 37.4 °F 32.8 °F 37.4 °F 100% 29.32 in 2.0 mi WNW 5.8 mph - N/A   Light Drizzle
12:41 PM 39.2 °F 35.9 °F 37.4 °F 93% 29.31 in 2.0 mi NW 4.6 mph - N/A   Light Drizzle
12:55 PM 40.1 °F 34.1 °F 38.7 °F 95% 29.31 in 2.0 mi NNW 9.2 mph - 0.02 in   Light Drizzle
1:08 PM 41.0 °F 33.1 °F 39.2 °F 93% 29.31 in 2.0 mi NNW 15.0 mph 26.5 mph N/A   Light Drizzle
1:23 PM 41.0 °F 32.5 °F 39.2 °F 93% 29.33 in 4.0 mi North 17.3 mph 32.2 mph N/A Rain Light Rain
1:55 PM 38.1 °F 28.8 °F 34.9 °F 88% 29.35 in 4.0 mi NNW 17.3 mph 31.1 mph 0.01 in Rain Light Rain
2:55 PM 37.4 °F 28.2 °F 34.5 °F 89% 29.42 in 3.0 mi NNW 16.1 mph 28.8 mph 0.02 in Rain , Snow Light Rain
3:55 PM 37.6 °F 27.7 °F 34.9 °F 90% 29.50 in 4.0 mi North 18.4 mph 29.9 mph 0.03 in Rain , Snow Light Rain
4:55 PM 38.1 °F 28.4 °F 34.9 °F 88% 29.57 in 4.0 mi NNW 18.4 mph 29.9 mph 0.02 in Rain Light Rain
5:55 PM 38.1 °F 27.1 °F 34.7 °F 87% 29.65 in 10.0 mi NNW 24.2 mph 36.8 mph 0.07 in Rain , Snow Light Rain
6:55 PM 38.3 °F 28.4 °F 34.9 °F 87% 29.73 in 10.0 mi North 19.6 mph 40.3 mph 0.07 in   Overcast
7:55 PM 38.5 °F 28.6 °F 35.1 °F 87% 29.79 in 10.0 mi NNW 19.6 mph 33.4 mph 0.06 in   Mostly Cloudy
8:45 PM 39.2 °F 30.2 °F 35.6 °F 87% 29.82 in 10.0 mi NNW 17.3 mph 36.8 mph N/A Rain Light Rain
8:55 PM 39.6 °F 29.5 °F 35.2 °F 85% 29.83 in 10.0 mi North 21.9 mph 35.7 mph 0.01 in Rain Light Rain
9:55 PM 39.9 °F 30.5 °F 35.6 °F 85% 29.86 in 10.0 mi North 19.6 mph 27.6 mph 0.01 in   Light Drizzle
10:25 PM 41.0 °F 33.5 °F 35.6 °F 81% 29.88 in 10.0 mi NNW 13.8 mph 25.3 mph N/A   Overcast
10:55 PM 40.5 °F 31.8 °F 34.5 °F 79% 29.89 in 10.0 mi North 17.3 mph 34.5 mph 0.00 in   Overcast
11:16 PM 41.0 °F 32.8 °F 33.8 °F 76% 29.89 in 10.0 mi North 16.1 mph 31.1 mph N/A   Overcast
11:55 PM 40.6 °F 33.0 °F 33.1 °F 74% 29.90 in 10.0 mi NNW 13.8 mph 26.5 mph N/A   Mostly Cloudy